This demonstration page uses our WeatherBlox Daily Observations layout. Learn more.

39.92423, -83.80882

Hourly Observations for May 29, 2019

Temp ( °F °C ) Dew Point ( °F °C ) Humidity (%) Winds ( mph kmh ) Pressure ( in mb ) Visibility ( mi km ) Precip ( " mm )
1:56 am 01:56 Clear 71 21.7 66 18.9 84 84 SSW 3 6 29.76 1008 10 16.0934 0 0
2:56 am 02:56 Mostly Cloudy 70 21.1 66 18.9 87 87 SSW 5 7 29.76 1008 10 16.0934 0 0
3:56 am 03:56 Partly Cloudy 71 21.7 66 18.9 84 84 SSW 3 6 29.74 1007 10 16.0934 0 0
4:56 am 04:56 Mostly Clear 70 21.1 67 19.4 90 90 SW 8 13 29.73 1007 10 16.0934 0 0
5:56 am 05:56 Partly Cloudy 70 21.1 67 19.4 90 90 SSW 8 13 29.74 1007 10 16.0934 0 0
6:56 am 06:56 Partly Cloudy 70 21.1 67 19.4 90 90 SSW 6 9 29.75 1008 10 16.0934 0 0
7:56 am 07:56 Mostly Sunny 72 22.2 69 20.6 91 91 SSW 8 13 29.75 1007 10 16.0934 0 0
8:56 am 08:56 Partly Cloudy 74 23.3 71 21.7 91 91 WSW 10 17 29.76 1008 10 16.0934 0 0
9:06 am 09:06 Mostly Cloudy with Light Rain 73 23 72 22 94 94 WSW 13 20 29.75 1007 10 16.0934 0 0.0254
9:13 am 09:13 Mostly Cloudy with Nearby Thunderstorms 73 23 72 22 94 94 WSW 14 22 29.75 1007 10 16.0934 0 0.0254
9:43 am 09:43 Cloudy with Rain 73 23 72 22 94 94 SW 16 26 29.73 1007 10 16.0934 0 0.0254
9:56 am 09:56 Partly Cloudy with Light Rain 73 22.8 72 22.2 96 96 SW 17 28 29.76 1008 10 16.0934 0 0.0254
10:56 am 10:56 Partly Cloudy 73 22.8 72 22.2 96 96 SW 15 24 29.75 1007 10 16.0934 0 0.0254
11:56 am 11:56 Sunny 76 24.4 69 20.6 79 79 W 15 24 29.73 1007 10 16.0934 0 0
12:56 pm 12:56 Sunny 76 24.4 67 19.4 74 74 SW 16 26 29.75 1008 10 16.0934 0 0
1:56 pm 13:56 Sunny 75 23.9 65 18.3 71 71 W 20 31 29.76 1008 10 16.0934 0 0
2:56 pm 14:56 Mostly Cloudy 74 23.3 66 18.9 76 76 WSW 18 30 29.78 1008 10 16.0934 0 0
3:56 pm 15:56 Mostly Sunny 77 25 67 19.4 71 71 W 18 30 29.76 1008 10 16.0934 0 0
4:56 pm 16:56 Cloudy 75 23.9 67 19.4 76 76 WSW 18 30 29.77 1008 10 16.0934 0 0
5:56 pm 17:56 Sunny 77 25 68 20 74 74 W 13 20 29.77 1008 10 16.0934 0 0
6:56 pm 18:56 Partly Cloudy 77 25 68 20 74 74 W 10 17 29.77 1008 10 16.0934 0 0
7:56 pm 19:56 Mostly Cloudy 74 23.3 69 20.6 85 85 WNW 5 7 29.79 1009 10 16.0934 0 0
8:56 pm 20:56 Cloudy 73 22.8 70 21.1 90 90 SW 3 6 29.79 1009 10 16.0934 0 0
9:56 pm 21:56 Mostly Cloudy 71 21.7 69 20.6 94 94 SSW 3 6 29.8 1009 10 16.0934 0 0
10:56 pm 22:56 Mostly Cloudy 70 21.1 68 20 93 93 SW 6 9 29.82 1010 10 16.0934 0 0
11:56 pm 23:56 Clear 69 20.6 67 19.4 93 93 SW 9 15 29.83 1010 10 16.0934 0 0

Powered by AerisWeather